Вернуться в каталог

STARLINK-33655

АктивенСвязьVLEO
NORAD 63424·PAYLOAD·🇺🇸 United States

Запущен Mar 31, 2025 с Cape Canaveral Space Force Station

Loading…

Ближайшие Пролёты (ближайшие 24 часа)

TLE

СвежийSource: CelesTrak SupGP

Эпоха: Sep 14, 2026, 21:19 UTC

1 63424C 25065AB  26257.88868056 -.00022739  00000+0 -82375-3 0  2577
2 63424  42.9990 118.9085 0001346 271.9273 348.8293 15.27584104    16

Отслеживайте STARLINK-33655 в реальном времени с AllMySat

Download on the App Store